{"data":{"norad_id":69358,"epoch":"2026-09-19T23:04:29.896896Z","epoch_age_seconds":75493,"freshness":"FRESH","line1":"1 69358U 26123F   26262.96145714  .00015634  00000+0  47278-3 0  9999","line2":"2 69358  53.1603 144.5237 0001129  63.4140 296.6978 15.34407151 16788","mean_motion":15.34407151,"eccentricity":0.0001129,"inclination_deg":53.1603,"raan_deg":144.5237,"arg_perigee_deg":63.414,"mean_anomaly_deg":296.6978,"bstar":0.00047278,"rev_number":1678,"period_min":93.847320710251,"perigee_km":461.90965754712,"apogee_km":463.45431447417,"semimajor_km":6840.8189860106,"source":"CELESTRAK","updated_at":"2026-09-20T09:00:44.165154Z"}}